Precipitable_Water
0.66 0.77 0.78 0.75 0.73 0.73 0.75 0.77 0.76 0.75 0.70 0.65 0.63 0.63 0.63 0.64 0.62 0.62 0.62 0.60 0.57 0.53 0.50 0.47 0.47 0.47 0.45 0.44 0.44 0.43 0.42 0.43 0.44 0.42 0.41 0.45 0.64 0.62 0.67 0.71 0.67 0.66 0.66
0.60 0.71 0.74 0.69 0.67 0.67 0.71 0.75 0.77 0.77 0.72 0.68 0.67 0.67 0.68 0.66 0.62 0.61 0.58 0.55 0.52 0.50 0.50 0.48 0.47 0.47 0.48 0.48 0.47 0.47 0.44 0.45 0.45 0.36 0.38 0.40 0.53 0.63 0.64 0.68 0.65 0.63 0.64
0.54 0.64 0.76 0.70 0.66 0.66 0.70 0.74 0.77 0.78 0.74 0.70 0.71 0.70 0.69 0.65 0.59 0.55 0.52 0.53 0.54 0.53 0.52 0.51 0.51 0.50 0.50 0.48 0.49 0.48 0.46 0.43 0.46 0.45 0.39 0.35 0.35 0.43 0.54 0.65 0.65 0.59 0.54
0.51 0.59 0.73 0.75 0.71 0.71 0.74 0.74 0.77 0.78 0.76 0.74 0.69 0.64 0.60 0.56 0.55 0.53 0.54 0.55 0.57 0.56 0.56 0.56 0.55 0.54 0.54 0.51 0.49 0.52 0.49 0.49 0.43 0.50 0.49 0.49 0.45 0.35 0.32 0.46 0.48 0.50 0.47
0.50 0.51 0.59 0.77 0.78 0.77 0.75 0.77 0.77 0.79 0.77 0.76 0.69 0.65 0.62 0.60 0.57 0.54 0.53 0.54 0.57 0.59 0.59 0.59 0.59 0.57 0.55 0.54 0.52 0.50 0.49 0.49 0.48 0.46 0.45 0.44 0.46 0.43 0.36 0.31 0.38 0.41 0.45
0.48 0.51 0.55 0.74 0.78 0.80 0.78 0.77 0.74 0.75 0.77 0.77 0.73 0.69 0.65 0.61 0.53 0.52 0.52 0.52 0.57 0.60 0.62 0.62 0.60 0.58 0.56 0.54 0.53 0.52 0.51 0.50 0.49 0.47 0.43 0.41 0.39 0.37 0.35 0.32 0.33 0.33 0.37
0.58 0.56 0.55 0.71 0.76 0.76 0.77 0.77 0.74 0.71 0.77 0.78 0.75 0.73 0.69 0.62 0.55 0.54 0.53 0.53 0.55 0.58 0.60 0.61 0.59 0.57 0.57 0.55 0.53 0.51 0.49 0.48 0.46 0.44 0.42 0.41 0.38 0.38 0.35 0.33 0.30 0.29 0.33
0.60 0.59 0.60 0.65 0.72 0.75 0.77 0.76 0.72 0.68 0.71 0.78 0.78 0.76 0.71 0.63 0.60 0.58 0.56 0.56 0.56 0.58 0.62 0.62 0.61 0.58 0.57 0.55 0.50 0.46 0.45 0.46 0.43 0.40 0.38 0.34 0.32 0.32 0.30 0.28 0.26 0.22 0.27
0.57 0.59 0.63 0.66 0.70 0.73 0.75 0.75 0.73 0.73 0.75 0.80 0.79 0.75 0.71 0.65 0.63 0.62 0.60 0.59 0.59 0.60 0.63 0.64 0.60 0.56 0.54 0.51 0.46 0.43 0.41 0.40 0.38 0.36 0.33 0.30 0.29 0.28 0.27 0.27 0.28 0.24 0.20
0.51 0.58 0.63 0.66 0.70 0.73 0.76 0.77 0.76 0.73 0.75 0.78 0.77 0.74 0.71 0.68 0.67 0.65 0.60 0.60 0.59 0.60 0.62 0.61 0.58 0.54 0.52 0.48 0.43 0.39 0.38 0.35 0.31 0.31 0.29 0.27 0.26 0.26 0.25 0.24 0.24 0.24 0.24
0.40 0.46 0.56 0.65 0.68 0.70 0.72 0.73 0.73 0.71 0.72 0.76 0.76 0.74 0.72 0.70 0.69 0.64 0.62 0.61 0.60 0.60 0.59 0.60 0.57 0.54 0.48 0.44 0.40 0.37 0.33 0.31 0.29 0.27 0.26 0.25 0.26 0.24 0.23 0.23 0.23 0.22 0.21
0.42 0.43 0.50 0.55 0.57 0.61 0.67 0.68 0.71 0.71 0.71 0.74 0.74 0.72 0.71 0.70 0.67 0.63 0.61 0.61 0.58 0.58 0.59 0.61 0.55 0.49 0.44 0.40 0.37 0.33 0.30 0.27 0.25 0.25 0.24 0.22 0.22 0.21 0.20 0.19 0.19 0.18 0.19
0.41 0.43 0.47 0.50 0.54 0.55 0.60 0.63 0.66 0.68 0.71 0.74 0.75 0.73 0.72 0.69 0.65 0.63 0.61 0.60 0.58 0.59 0.60 0.59 0.54 0.44 0.42 0.39 0.35 0.32 0.28 0.25 0.26 0.25 0.22 0.20 0.20 0.19 0.19 0.17 0.16 0.16 0.17
0.40 0.43 0.45 0.50 0.55 0.56 0.57 0.59 0.64 0.69 0.70 0.72 0.73 0.73 0.72 0.69 0.67 0.63 0.60 0.59 0.59 0.61 0.62 0.58 0.51 0.46 0.39 0.34 0.32 0.30 0.27 0.25 0.25 0.23 0.20 0.18 0.16 0.16 0.17 0.17 0.16 0.15 0.15
0.37 0.44 0.44 0.48 0.54 0.57 0.59 0.62 0.61 0.65 0.69 0.71 0.71 0.70 0.71 0.68 0.67 0.62 0.60 0.60 0.63 0.64 0.63 0.55 0.49 0.41 0.36 0.33 0.29 0.29 0.26 0.24 0.21 0.20 0.17 0.16 0.15 0.15 0.14 0.14 0.14 0.15 0.13
0.39 0.46 0.47 0.49 0.53 0.60 0.61 0.64 0.65 0.66 0.68 0.64 0.67 0.68 0.67 0.70 0.66 0.61 0.61 0.65 0.64 0.63 0.58 0.53 0.45 0.38 0.32 0.30 0.28 0.28 0.25 0.22 0.20 0.19 0.18 0.17 0.17 0.13 0.12 0.13 0.13 0.13 0.13
0.42 0.45 0.46 0.53 0.57 0.61 0.64 0.64 0.65 0.67 0.65 0.66 0.67 0.64 0.63 0.66 0.64 0.64 0.65 0.63 0.61 0.59 0.54 0.48 0.43 0.36 0.31 0.28 0.27 0.26 0.24 0.22 0.22 0.20 0.16 0.14 0.13 0.14 0.13 0.12 0.12 0.12 0.12
0.40 0.44 0.50 0.54 0.62 0.68 0.67 0.68 0.69 0.66 0.66 0.65 0.64 0.64 0.63 0.63 0.62 0.62 0.62 0.61 0.60 0.57 0.52 0.46 0.41 0.34 0.28 0.27 0.26 0.26 0.25 0.23 0.21 0.20 0.18 0.16 0.14 0.14 0.13 0.12 0.11 0.11 0.11
0.40 0.41 0.48 0.59 0.63 0.69 0.71 0.70 0.67 0.64 0.63 0.62 0.60 0.61 0.62 0.61 0.60 0.59 0.59 0.59 0.58 0.53 0.46 0.44 0.38 0.32 0.28 0.27 0.27 0.26 0.24 0.22 0.21 0.20 0.18 0.15 0.13 0.12 0.13 0.12 0.11 0.11 0.12
0.39 0.40 0.45 0.52 0.61 0.66 0.71 0.66 0.63 0.61 0.59 0.59 0.60 0.61 0.61 0.60 0.58 0.57 0.57 0.56 0.52 0.46 0.43 0.39 0.36 0.31 0.27 0.26 0.26 0.26 0.24 0.22 0.20 0.18 0.16 0.15 0.13 0.13 0.14 0.14 0.13 0.11 0.11
0.36 0.38 0.40 0.46 0.52 0.57 0.62 0.60 0.61 0.58 0.59 0.59 0.59 0.59 0.58 0.57 0.56 0.55 0.54 0.51 0.46 0.42 0.37 0.34 0.31 0.29 0.26 0.24 0.24 0.27 0.25 0.22 0.21 0.19 0.17 0.15 0.14 0.13 0.13 0.13 0.12 0.12 0.15
0.34 0.36 0.37 0.41 0.48 0.51 0.53 0.55 0.54 0.60 0.59 0.58 0.56 0.55 0.55 0.54 0.53 0.52 0.51 0.48 0.45 0.39 0.35 0.31 0.29 0.28 0.26 0.23 0.23 0.24 0.24 0.23 0.21 0.19 0.17 0.15 0.14 0.13 0.13 0.13 0.13 0.14 0.16
0.35 0.36 0.36 0.38 0.44 0.48 0.49 0.49 0.55 0.57 0.58 0.56 0.54 0.53 0.52 0.51 0.51 0.50 0.49 0.44 0.39 0.35 0.32 0.30 0.28 0.27 0.26 0.23 0.21 0.20 0.20 0.21 0.21 0.20 0.17 0.14 0.14 0.15 0.14 0.13 0.14 0.16 0.16
0.34 0.35 0.37 0.37 0.38 0.43 0.46 0.48 0.52 0.56 0.55 0.53 0.52 0.52 0.51 0.50 0.50 0.48 0.44 0.39 0.36 0.35 0.32 0.30 0.28 0.27 0.25 0.22 0.20 0.18 0.19 0.19 0.17 0.15 0.15 0.15 0.14 0.14 0.15 0.16 0.16 0.15 0.15
0.32 0.32 0.32 0.34 0.38 0.43 0.44 0.47 0.49 0.51 0.50 0.51 0.51 0.49 0.49 0.48 0.47 0.45 0.42 0.39 0.39 0.37 0.33 0.31 0.30 0.27 0.24 0.23 0.22 0.21 0.19 0.19 0.17 0.15 0.15 0.16 0.17 0.16 0.16 0.16 0.16 0.17 0.17
0.33 0.32 0.33 0.34 0.36 0.40 0.44 0.46 0.49 0.49 0.47 0.46 0.47 0.48 0.48 0.46 0.44 0.42 0.40 0.41 0.39 0.36 0.35 0.34 0.33 0.30 0.29 0.25 0.22 0.21 0.20 0.19 0.15 0.17 0.17 0.18 0.18 0.17 0.16 0.17 0.16 0.16 0.15
Wind_Speed
31 32 31 30 30 30 29 29 28 27 26 25 24 23 22 20 19 18 16 16 16 16 17 17 17 17 17 18 18 19 20 20 21 22 23 24 23 24 25 26 27 29 30
32 32 31 31 31 31 30 30 29 29 28 27 25 23 21 20 19 18 17 17 17 17 17 17 17 17 17 18 18 19 20 20 21 22 23 23 25 25 26 27 29 30 32
31 32 32 31 32 33 32 32 31 30 30 28 27 25 23 21 20 19 18 18 17 17 17 17 17 17 18 18 19 19 20 21 21 22 23 24 25 28 28 27 29 33 34
31 31 33 32 32 32 33 33 32 32 31 30 29 27 25 23 22 21 20 19 18 18 18 17 18 18 18 19 19 20 21 22 22 23 24 25 26 27 28 30 33 34 36
29 32 33 33 32 33 34 34 34 33 33 32 31 29 28 26 24 23 22 21 20 19 19 19 19 19 20 20 20 21 21 22 23 24 25 25 26 27 29 32 33 36 36
24 27 30 32 32 33 35 36 36 36 35 35 34 33 31 28 27 25 24 23 23 22 21 21 21 21 21 21 21 22 22 23 24 24 25 25 27 29 30 33 36 37 36
24 26 28 30 33 34 35 36 37 38 37 37 36 35 33 32 30 28 27 26 25 24 23 22 22 22 22 22 22 23 23 24 24 24 24 25 27 29 32 34 36 36 38
24 24 26 29 32 33 35 36 37 38 39 38 38 37 36 34 32 31 29 28 27 26 25 24 23 23 23 23 23 23 24 23 23 23 24 25 27 30 32 33 35 35 35
25 27 28 29 31 32 34 34 36 38 38 39 39 38 37 36 34 32 31 30 29 28 27 25 25 24 24 24 24 24 24 23 22 22 24 26 27 29 31 32 32 32 33
30 30 32 31 31 32 33 33 34 36 37 37 38 38 37 37 35 34 33 32 30 29 28 27 26 25 25 24 24 23 22 21 21 22 24 25 27 28 30 31 31 32 32
33 35 33 33 34 34 34 35 35 35 36 37 37 38 38 37 37 36 34 33 32 30 29 28 27 26 24 23 22 21 20 20 20 21 23 24 25 27 28 29 29 29 29
34 34 34 35 36 37 37 37 36 38 37 36 36 37 38 38 37 36 36 34 32 31 30 28 26 24 23 22 21 20 19 19 19 20 21 23 25 26 27 27 27 26 26
37 37 37 36 37 37 38 38 38 37 37 37 37 38 39 39 38 37 36 35 33 31 30 27 25 23 22 21 19 19 18 18 18 19 21 23 23 25 25 25 24 24 21
39 39 39 39 40 40 40 40 40 39 38 38 38 37 37 36 36 36 35 34 33 31 29 26 24 23 21 19 18 18 17 17 18 19 20 21 22 23 23 23 22 21 18
38 38 39 40 39 40 41 41 42 41 41 41 38 37 36 34 34 34 33 32 30 29 27 25 23 21 19 18 18 18 17 17 17 18 19 19 19 20 20 20 20 18 16
38 37 38 38 37 36 38 39 40 41 42 41 40 38 36 34 33 32 32 31 30 28 26 24 22 20 19 18 17 17 17 17 17 17 18 18 17 17 17 17 17 15 13
32 33 33 33 32 32 32 34 37 39 39 38 39 38 37 34 33 32 32 31 29 25 24 22 20 18 18 17 16 16 16 16 17 17 17 16 16 16 15 15 14 13 11
27 28 27 27 27 26 27 29 31 35 36 35 34 34 34 32 31 31 29 27 26 24 22 20 19 17 16 16 15 15 15 15 15 16 15 14 14 14 13 12 12 11 9
23 23 25 24 22 21 18 21 22 28 32 33 34 36 31 30 29 28 27 26 24 22 21 20 19 17 17 16 16 16 15 15 15 14 14 13 13 12 11 10 9 9 8
20 21 22 21 22 18 16 15 16 19 25 28 29 28 28 26 25 25 24 22 21 20 19 18 18 17 17 17 16 16 16 15 14 13 13 12 12 11 10 9 8 7 7
18 18 19 19 17 15 14 12 9 10 14 21 23 22 22 22 22 22 20 19 18 17 17 17 17 17 17 17 17 16 16 15 14 14 13 12 11 10 8 8 8 8 8
16 17 18 17 16 14 13 13 11 9 9 13 20 20 20 21 20 20 19 18 17 17 16 16 16 16 17 17 16 16 15 15 15 14 13 12 10 10 9 8 8 8 8
17 17 18 18 17 15 13 12 13 10 11 11 15 20 19 19 19 18 18 17 17 17 17 16 16 16 16 16 16 16 15 15 15 14 13 12 11 11 9 9 9 9 9
18 18 19 19 18 17 14 12 12 12 13 13 15 18 20 18 18 18 16 16 16 17 17 17 17 16 16 16 16 16 16 15 14 14 14 13 13 12 11 11 11 11 11
21 21 21 21 19 17 16 14 13 12 12 13 15 16 18 18 17 16 15 15 15 16 17 17 17 17 17 17 17 17 17 16 16 15 15 15 14 14 13 13 13 13 13
25 25 24 23 22 20 18 16 14 13 14 15 16 16 17 17 15 14 14 14 16 16 16 16 17 17 18 17 17 16 16 16 16 16 16 16 15 15 15 15 15 15 15
Wind_Direction
251 248 248 247 246 246 247 248 249 251 254 257 260 266 271 273 273 273 273 272 271 270 269 271 272 272 273 274 276 276 277 278 283 280 282 279 279 280 281 282 284 286 287
252 249 246 246 245 245 246 246 248 249 252 255 258 263 267 269 269 269 270 272 272 272 272 272 272 273 273 276 278 280 279 281 285 284 281 281 279 281 281 284 285 287 288
252 248 245 245 245 246 246 247 248 248 250 252 255 258 263 264 265 265 267 270 271 272 272 272 273 274 275 278 280 282 283 283 285 288 286 284 283 289 282 285 288 291 290
255 252 246 246 247 247 248 248 248 248 249 249 251 252 256 260 261 262 265 267 269 270 271 272 274 276 277 279 281 283 284 285 287 285 289 288 288 288 287 287 291 293 293
262 256 251 246 247 249 249 249 249 248 248 248 249 250 253 257 259 260 261 264 266 268 270 272 274 276 278 280 282 284 285 287 288 290 291 291 290 291 290 290 291 294 293
265 262 256 247 250 252 251 250 249 248 247 247 248 248 250 254 255 257 259 260 262 265 269 272 274 276 277 279 282 284 287 287 289 290 291 293 293 294 294 293 294 294 294
279 273 261 250 255 256 253 252 250 248 247 246 246 247 249 250 253 256 258 258 260 263 266 270 273 276 278 280 282 284 287 288 289 291 292 295 296 296 297 297 296 295 296
285 278 271 264 258 257 256 254 252 249 247 246 245 246 247 249 252 254 256 257 259 261 263 267 271 274 277 280 281 284 287 287 289 292 294 297 300 301 301 301 301 300 298
289 283 276 270 264 261 258 256 254 250 248 246 245 245 244 246 249 251 253 255 256 258 261 264 268 272 276 280 281 283 284 286 288 291 296 301 303 305 305 304 305 302 301
288 284 278 273 267 264 260 258 256 252 248 245 244 243 243 245 248 249 250 252 253 256 259 262 266 270 274 277 279 281 283 285 288 293 297 302 306 308 309 309 306 305 304
289 287 280 273 268 265 262 261 259 254 251 247 245 244 244 245 246 247 249 250 251 254 257 261 265 269 272 274 275 279 281 285 289 294 301 305 310 312 314 313 311 307 304
289 288 285 278 271 265 262 261 259 254 251 248 246 245 245 245 246 247 248 248 249 252 255 260 263 265 267 270 272 277 281 284 290 297 303 307 311 314 315 314 315 310 308
288 287 286 281 274 270 265 261 258 255 249 248 246 246 246 246 247 248 247 247 248 252 255 257 257 261 266 268 269 273 278 284 291 298 304 309 313 316 316 317 315 312 308
287 288 287 283 278 271 267 262 257 253 249 247 247 246 245 245 244 244 244 244 247 250 254 252 253 258 261 263 268 273 279 284 290 298 305 310 314 318 318 317 314 313 308
288 287 288 285 281 274 268 263 256 251 249 246 245 245 244 243 243 241 240 242 245 247 251 245 251 254 257 262 265 271 276 282 288 298 304 309 314 320 323 319 317 312 309
290 290 288 286 282 277 269 263 255 250 246 243 243 243 241 242 240 240 239 243 244 246 242 243 248 251 256 259 265 268 274 280 288 295 301 303 308 316 321 324 325 319 310
294 293 293 288 283 279 270 264 255 248 243 241 240 238 238 240 239 240 240 240 241 236 236 241 244 249 252 254 263 269 275 280 289 294 297 298 303 307 311 318 322 323 318
295 295 295 295 289 284 275 267 258 245 239 238 235 235 235 235 235 236 234 233 231 233 235 239 241 246 248 253 261 269 276 282 288 292 293 294 298 302 302 310 318 320 317
296 298 297 293 295 289 284 274 265 243 235 234 233 231 230 229 229 230 226 228 227 227 233 237 239 241 248 254 262 269 275 279 286 289 288 290 292 296 297 302 312 322 319
299 301 302 295 293 291 286 291 268 241 237 233 229 225 227 225 224 219 219 218 219 226 229 233 240 241 246 254 262 268 272 276 281 280 283 286 287 286 287 291 299 311 316
301 306 309 305 298 290 282 286 282 257 240 224 219 216 216 214 211 207 208 210 217 223 229 234 241 244 249 255 261 267 270 271 272 273 275 278 278 278 279 283 290 296 301
303 309 312 313 311 297 286 276 277 263 231 219 213 212 207 204 203 205 212 215 222 227 233 237 242 248 251 255 259 267 266 266 267 268 267 265 265 266 271 278 284 290 295
301 307 311 311 310 302 295 283 266 251 229 215 207 202 202 203 208 209 210 222 230 233 234 239 245 250 253 258 260 262 261 262 264 261 256 256 257 259 268 274 279 284 290
297 301 305 307 306 300 293 285 267 251 238 228 217 210 207 210 210 212 224 230 231 233 239 245 249 252 256 258 258 260 258 258 258 254 254 254 253 257 263 269 275 282 286
291 293 293 295 296 296 287 280 268 251 240 227 219 215 209 210 210 217 228 233 236 241 246 250 253 253 255 257 257 257 256 254 252 250 252 251 253 257 262 268 274 280 285
290 290 287 284 283 280 279 269 262 251 239 231 221 215 207 211 218 223 232 243 245 250 252 254 254 257 256 253 256 258 254 249 247 252 252 251 253 257 262 268 274 279 285